[[{"header":{"parameterUnit":"m.s-1","parameterCategory":1,"la1":30.2991,"la2":30.254,"lo1":-89.0895,"lo2":-89.0444,"dy":0.0017,"dx":0.0017,"nx":28,"ny":28,"refTime":"2024-05-24T21:00:00:Z","depth":0,"parameterNumber":2,"parameterNumberName":"U-component_of_WINDS"},"data":[0,0,0,0,0,0,0,0,0,0,0,0,0,0,0,0,0,0,0,0,0,0,0,0,0,0,0,0,0,0,0,0,0,0,0,0,0,0,0,0,0,0,0,0,0,0,0,0,0,0,0,0,0,0,0,0,0,0,0.8146,0.8146,0,0.8148,0.8148,0.8148,0.811,0.8109,0.8108,0.8107,0.8109,0.811,0.8111,0,0,0,0,0,0,0,0,0,0,0,0,0,0.8109,0.811,0.8146,0.8146,0.8146,0.8148,0.8148,0.8148,0.811,0.8109,0.8108,0.8107,0.8109,0.811,0.8111,0,0,0,0,0,0,0,0,0,0,0,0,0,0.812,0.8111,0.8146,0.8128,0.8126,0.8148,0.8148,0.8148,0.8111,0.8109,0.8108,0.8106,0.8108,0.811,0.8111,0.8151,0,0,0.8116,0.8116,0,0,0,0,0,0,0,0,0.8119,0.8121,0.813,0.8129,0.8127,0.8127,0.8135,0.8149,0.8111,0.8116,0.8107,0.8105,0.8116,0.8117,0.8121,0.8151,0.8151,0.8116,0.8117,0.8117,0.8118,0,0,0,0,0,0,0,0.8118,0.8121,0.8147,0.813,0.8129,0.8119,0.8119,0.8138,0.8125,0.8116,0.8113,0.8114,0.8115,0.8119,0.812,0.8151,0.8116,0.8117,0.8118,0.8118,0.8212,0.8214,0,0,0,0,0,0,0.812,0.812,0.8147,0.8147,0.8119,0.8121,0.8121,0.8129,0.8124,0.8122,0.8115,0.8112,0.8117,0.8119,0.812,0.8165,0.8117,0.8119,0.8119,0.821,0.8212,0.8214,0,0,0,0,0,0,0.812,0.8123,0.8147,0.8133,0.8135,0.8123,0.8133,0.813,0.8134,0.8124,0.8121,0.8122,0.8116,0.8118,0.8143,0.8165,0.8119,0.8121,0.8209,0.8211,0.8213,0.8256,0,0,0,0,0,0,0.8119,0.8123,0.8138,0.8133,0.8136,0.817,0.8134,0.8131,0.8136,0.8132,0.813,0.8128,0.8115,0.8141,0.8145,0.8166,0.8122,0.8207,0.821,0.8213,0.8253,0.826,0.8266,0,0,0,0,0,0.8118,0.815,0.8139,0.8143,0.8155,0.8171,0.8172,0.8158,0.8138,0.8153,0.8147,0.8128,0.8162,0.8144,0.8148,0.817,0.8205,0.8209,0.8212,0.825,0.8258,0.8266,0,0,0,0,0,0,0.8158,0.815,0.8137,0.8169,0.8171,0.8165,0.8183,0.8167,0.8175,0.8171,0.8152,0.8151,0.8179,0.8177,0.8157,0.8207,0.818,0.8185,0.8207,0.8216,0.8222,0.8221,0.8123,0,0,0,0,0,0.8171,0.8185,0.8177,0.8206,0.8208,0.8195,0.8202,0.819,0.8191,0.8192,0.8187,0.8189,0.82,0.8208,0.8218,0.8253,0.8251,0.827,0.8276,0.8281,0.8285,0.8303,0.831,0.8226,0.8226,0.8226,0,0,0.8197,0.8194,0.8205,0.8214,0.8214,0.8229,0.8196,0.8213,0.8224,0.8195,0.8217,0.8214,0.8215,0.8245,0.8258,0.8244,0.8308,0.8286,0.829,0.8291,0.8307,0.8315,0.8322,0.8228,0.8228,0.8228,0,0,0.8253,0.8252,0.8276,0.8277,0.8277,0.8269,0.8274,0.827,0.8267,0.829,0.8267,0.828,0.8299,0.83,0.8304,0.8359,0.8341,0.8362,0.8396,0.8413,0.842,0.8425,0.8444,0.8451,0.8366,0.8367,0.8367,0,0.8285,0.8307,0.829,0.8309,0.8313,0.8287,0.8311,0.8312,0.8316,0.8319,0.8304,0.8327,0.8326,0.8355,0.8369,0.8372,0.8378,0.8362,0.842,0.8426,0.8431,0.8448,0.8456,0.8369,0.8369,0.8369,0.8368,0,0.8346,0.8361,0.838,0.8384,0.8391,0.8412,0.8398,0.8407,0.8395,0.8388,0.8411,0.8408,0.8416,0.8423,0.8411,0.845,0.8441,0.8423,0.8396,0.8442,0.8458,0.8465,0.8373,0.8372,0.8371,0.837,0,0,0.8427,0.8421,0.8428,0.8429,0.8427,0.8439,0.8458,0.8466,0.8473,0.8477,0.8492,0.8509,0.8492,0.8496,0.8484,0.8499,0.8542,0.8479,0.8479,0.849,0.8583,0.8596,0.8604,0.853,0.8532,0.8533,0.8583,0,0.848,0.8512,0.8498,0.8532,0.8545,0.852,0.8537,0.8538,0.8532,0.8542,0.8535,0.8547,0.8525,0.8526,0.854,0.8534,0.856,0.853,0.8544,0.8544,0.8543,0.8613,0.8626,0.8674,0.8589,0.859,0.8591,0,0.8546,0.8551,0.8586,0.8581,0.8586,0.8602,0.8607,0.8618,0.8618,0.8612,0.8616,0.86,0.8619,0.8592,0.8616,0.8596,0.8601,0.8599,0.86,0.86,0.857,0.8614,0.8689,0.8696,0.8601,0.86,0.8599,0,0.8599,0.8616,0.8639,0.8641,0.8636,0.8647,0.8645,0.8644,0.8649,0.8654,0.8657,0.8665,0.8668,0.8674,0.8661,0.8643,0.8687,0.8659,0.8682,0.8683,0.8692,0.8691,0.8768,0.8697,0.8697,0.8697,0.8697,0,0.8659,0.8681,0.8663,0.8677,0.8701,0.8684,0.8708,0.8704,0.8703,0.8715,0.8695,0.8707,0.8689,0.8699,0.8689,0.871,0.8713,0.8708,0.8705,0.8709,0.871,0.8712,0.8708,0.8699,0.8698,0.8698,0.8697,0,0.8723,0.8712,0.8735,0.8728,0.8727,0.8745,0.8739,0.8751,0.8744,0.876,0.8762,0.8751,0.8762,0.8749,0.8759,0.8752,0.8781,0.8773,0.8781,0.8778,0.8802,0.8799,0.8881,0.8891,0.8815,0.8816,0.8816,0,0.8761,0.8778,0.8773,0.8779,0.8779,0.879,0.8795,0.878,0.8786,0.8787,0.8799,0.8808,0.8815,0.8833,0.8825,0.8833,0.8825,0.8853,0.8826,0.8829,0.8824,0.8823,0.8824,0.8858,0.8859,0.886,0.8861,0,0.883,0.8823,0.8832,0.8838,0.8845,0.8849,0.8851,0.8858,0.8841,0.8849,0.886,0.8865,0.8875,0.8884,0.889,0.8888,0.8871,0.8869,0.8875,0.8879,0.8882,0.888,0.8795,0.8867,0.8867,0.8866,0.8866,0.8866,0.8881,0.8894,0.8893,0.8902,0.8902,0.8905,0.8916,0.891,0.8919,0.8925,0.8916,0.8929,0.8928,0.8933,0.8933,0.8943,0.8931,0.8939,0.8941,0.8943,0.8946,0.8882,0.8944,0.8944,0.8944,0.8944,0.8944,0,0.8948,0.8946,0.8955,0.8959,0.8966,0.895,0.8952,0.8959,0.8971,0.8972,0.8978,0.899,0.8999,0.8992,0.8999,0.9008,0.9001,0.9011,0.9009,0.9009,0.8957,0.8951,0.9016,0.9016,0.9016,0.9016,0.9016,0.9016,0.8983,0.9004,0.8997,0.9018,0.9015,0.9028,0.903,0.9032,0.9032,0.9047,0.9054,0.9049,0.9046,0.9053,0.906,0.9058,0.9061,0.9073,0.9068,0.902,0.9013,0.9006,0.9,0.9074,0.9074,0.9119,0.9119,0.9119]},{"header":{"parameterUnit":"m.s-1","parameterCategory":1,"la1":30.2991,"la2":30.254,"lo1":-89.0895,"lo2":-89.0444,"dy":0.0017,"dx":0.0017,"nx":28,"ny":28,"refTime":"2024-05-24T21:00:00:Z","depth":0,"parameterNumber":3,"parameterNumberName":"V-component_of_WINDS"},"data":[0,0,0,0,0,0,0,0,0,0,0,0,0,0,0,0,0,0,0,0,0,0,0,0,0,0,0,0,0,0,0,0,0,0,0,0,0,0,0,0,0,0,0,0,0,0,0,0,0,0,0,0,0,0,0,0,0,0,3.1161,3.1161,0,3.1229,3.1229,3.123,3.1213,3.1212,3.1211,3.121,3.1277,3.128,3.1283,0,0,0,0,0,0,0,0,0,0,0,0,0,3.1014,3.1017,3.1161,3.1162,3.1162,3.1228,3.1229,3.123,3.1214,3.1212,3.121,3.1209,3.1276,3.128,3.1283,0,0,0,0,0,0,0,0,0,0,0,0,0,3.1079,3.1018,3.116,3.1162,3.1163,3.1228,3.1229,3.123,3.1214,3.1212,3.121,3.1208,3.1275,3.1279,3.1284,3.1351,0,0,3.1298,3.13,0,0,0,0,0,0,0,0,3.1076,3.1085,3.1161,3.1162,3.1163,3.1211,3.1202,3.1271,3.1214,3.1195,3.121,3.1207,3.1256,3.1262,3.1279,3.1354,3.1357,3.1298,3.1301,3.1303,3.1304,0,0,0,0,0,0,0,3.1071,3.1082,3.1187,3.1162,3.1163,3.1158,3.1166,3.1215,3.1236,3.1196,3.1195,3.1203,3.1257,3.1275,3.1281,3.1358,3.1298,3.1302,3.1305,3.1306,3.149,3.1492,0,0,0,0,0,0,3.1066,3.1078,3.1185,3.1189,3.1114,3.1163,3.1171,3.1197,3.1235,3.1239,3.1205,3.1202,3.1268,3.1275,3.1283,3.1364,3.1303,3.1307,3.131,3.1488,3.1491,3.1493,0,0,0,0,0,0,3.1063,3.1076,3.1183,3.1133,3.1147,3.1167,3.1197,3.12,3.1218,3.1242,3.1245,3.122,3.1267,3.1277,3.1334,3.1366,3.1309,3.1313,3.1485,3.1489,3.1492,3.1526,0,0,0,0,0,0,3.1059,3.1075,3.1101,3.1134,3.1149,3.1234,3.1199,3.1202,3.1226,3.1223,3.1257,3.1261,3.1266,3.1327,3.1339,3.1371,3.1317,3.1483,3.1487,3.1491,3.1522,3.153,3.1537,0,0,0,0,0,3.1054,3.1108,3.1103,3.1116,3.1183,3.1235,3.1244,3.125,3.1229,3.1255,3.127,3.126,3.136,3.1333,3.1346,3.138,3.1481,3.1486,3.149,3.1519,3.1528,3.1536,0,0,0,0,0,0,3.1078,3.1113,3.1107,3.1174,3.1202,3.1233,3.1266,3.126,3.1294,3.129,3.1295,3.1302,3.1361,3.1376,3.1346,3.1446,3.1417,3.1425,3.1435,3.1444,3.1451,3.1446,3.132,0,0,0,0,0,3.1091,3.1132,3.1159,3.1216,3.123,3.1246,3.1269,3.127,3.1299,3.1311,3.133,3.1358,3.1396,3.1421,3.1457,3.1524,3.153,3.1553,3.1561,3.1566,3.1573,3.1608,3.1619,3.1509,3.1509,3.1509,0,0,3.1119,3.1143,3.1168,3.1221,3.1243,3.1284,3.1256,3.13,3.133,3.1317,3.1373,3.1388,3.1419,3.1481,3.151,3.1496,3.1605,3.1573,3.1577,3.1581,3.1614,3.1625,3.1634,3.1512,3.1512,3.1511,0,0,3.1191,3.1213,3.1262,3.1284,3.1318,3.1328,3.1339,3.1371,3.138,3.1436,3.1427,3.1462,3.1527,3.155,3.157,3.1648,3.1639,3.1659,3.1697,3.1732,3.1741,3.1748,3.1775,3.1785,3.1666,3.1666,3.1666,0,3.1221,3.1283,3.1288,3.1333,3.1356,3.1346,3.1395,3.1417,3.146,3.1476,3.1459,3.154,3.1561,3.1628,3.1647,3.1663,3.1676,3.1656,3.1739,3.1747,3.1754,3.178,3.179,3.1668,3.1668,3.1667,3.1667,0,3.1317,3.136,3.1396,3.1438,3.1465,3.1512,3.1523,3.1549,3.1548,3.156,3.1616,3.164,3.168,3.1696,3.1696,3.1762,3.1753,3.1738,3.1709,3.1767,3.1791,3.1801,3.1671,3.167,3.167,3.1669,0,0,3.1407,3.1451,3.1464,3.1483,3.1518,3.1551,3.1596,3.1636,3.1659,3.1688,3.1726,3.1781,3.1767,3.1789,3.1791,3.1822,3.1881,3.1803,3.1803,3.1816,3.1955,3.1966,3.1977,3.1875,3.1877,3.1878,3.1952,0,3.1482,3.1563,3.1568,3.1641,3.168,3.1671,3.171,3.1736,3.1747,3.1781,3.1793,3.1832,3.1811,3.1824,3.1854,3.1867,3.1909,3.1862,3.1909,3.1911,3.1902,3.199,3.2002,3.2071,3.1962,3.1963,3.1965,0,3.158,3.1612,3.169,3.1718,3.1735,3.1771,3.1807,3.184,3.1868,3.1873,3.1898,3.1895,3.1941,3.191,3.1972,3.194,3.1959,3.1969,3.1972,3.1976,3.1941,3.1997,3.2093,3.2103,3.198,3.1979,3.1978,0,3.1637,3.17,3.1754,3.177,3.1806,3.1831,3.1846,3.1873,3.1896,3.1927,3.1942,3.1978,3.1997,3.2025,3.2031,3.2008,3.2093,3.2063,3.2098,3.2098,3.2117,3.2116,3.2217,3.213,3.213,3.2129,3.2129,0,3.1719,3.1767,3.178,3.1814,3.1866,3.1871,3.1922,3.1936,3.1959,3.1994,3.1988,3.202,3.2027,3.2061,3.2066,3.2116,3.2125,3.213,3.2131,3.2131,3.213,3.2144,3.2139,3.2132,3.2132,3.2131,3.2131,0,3.1792,3.1804,3.1862,3.189,3.1898,3.1935,3.1959,3.199,3.2,3.2044,3.2055,3.2071,3.211,3.2119,3.2165,3.2169,3.2228,3.2224,3.2219,3.2219,3.2254,3.225,3.2367,3.2382,3.2285,3.2286,3.2287,0,3.1844,3.1881,3.1913,3.1936,3.1953,3.199,3.2013,3.2019,3.2044,3.2077,3.2104,3.2143,3.2174,3.2237,3.2252,3.2287,3.2284,3.2322,3.2289,3.2288,3.2284,3.2282,3.2285,3.2329,3.233,3.2331,3.2331,0,3.1935,3.1939,3.1973,3.2009,3.2038,3.2066,3.2093,3.2112,3.2121,3.2149,3.2189,3.2214,3.2261,3.2299,3.2334,3.2349,3.2342,3.2342,3.2352,3.2352,3.2347,3.235,3.2236,3.2339,3.2338,3.2338,3.2337,3.2337,3.1999,3.2031,3.2058,3.2096,3.2117,3.2142,3.2173,3.2186,3.222,3.2259,3.226,3.2304,3.2329,3.2376,3.2393,3.2426,3.2414,3.2429,3.2432,3.2436,3.2439,3.2342,3.2432,3.2432,3.2432,3.2432,3.2432,0,3.2089,3.2106,3.2141,3.2179,3.2209,3.22,3.2229,3.2254,3.2293,3.2317,3.2348,3.2394,3.243,3.2447,3.2483,3.2506,3.2504,3.2516,3.2514,3.2517,3.2448,3.2436,3.2517,3.2517,3.2517,3.2517,3.2517,3.2517,3.214,3.2192,3.2198,3.226,3.2277,3.232,3.2337,3.236,3.2379,3.2431,3.2461,3.2472,3.2493,3.253,3.2563,3.2567,3.258,3.2594,3.2596,3.2531,3.2522,3.2514,3.2502,3.2597,3.2597,3.2663,3.2663,3.2664]}]]